{"data":{"norad_id":39469,"epoch":"2026-09-20T05:13:44.762016Z","epoch_age_seconds":58139,"freshness":"FRESH","line1":"1 39469U 13072H   26263.21787919  .00014474  00000+0  50453-3 0  9996","line2":"2 39469 120.4884 359.6784 0142877 117.5710 243.9956 15.20890648132279","mean_motion":15.20890648,"eccentricity":0.0142877,"inclination_deg":120.4884,"raan_deg":359.6784,"arg_perigee_deg":117.571,"mean_anomaly_deg":243.9956,"bstar":0.00050453,"rev_number":13227,"period_min":94.681363311269,"perigee_km":404.83499862431,"apogee_km":601.4706072593,"semimajor_km":6881.2898029418,"source":"CELESTRAK","updated_at":"2026-09-20T09:00:13.960003Z"}}